Location: Frankfurt+am+Main
(50.1100°N, 8.4815°E)
Time: 11:33:11
(UTC+01:00)

ISS - Pass Details

Date: 10 January 2018
Orbit: 402 x 407 km, 51.6° (Epoch: 22 January)

Event Time Altitude Azimuth Distance (km) Brightness Sun altitude
Exits shadow 04:58:32 11° 83° (E) 1,438 -0.2 -31.8°
Drops below altitude 10° 04:58:37 10° 83° (E) 1,469 -0.1 -31.8°
Sets 05:00:43 0° 87° (E) 2,330 1.2 -31.4°
